Showing default

SOLRAD 7A, 730

Orbit data source: Space-Track

SOLRAD 7A, 730 is an American payload satellite in LEO that was launched on Sat, 11 Jan 1964 UTC via a THOR SLV-2A AGENA D launch vehicle from the Air Force Western Test Range (AFWTR). Payload-class satellites include a variety of spacecraft equipped with specific instruments for various scientific and technological missions. These include communications satellites like Starlink; space stations such as the ISS; scientific satellites like the Hubble; Earth observation satellites from companies like Planet Labs, Umbra, and HawkEye 360; GPS; miniature CubeSats for education and research; and military/defense satellites.

Loading next visibility...
Identifier
730, 1964-001D
Orbit
LEO
Country
Flag of USUS
Related business
Manufacturer
NRL
Mission
Spacecraft
Bus & Motor
NRL 24", Unknown motor
Mass
40 kg wet, 40 kg dry
Launch date (UTC)
1964-01-11 (62 years ago)
Launch vehicle
THOR SLV-2A AGENA D
Launch site
Air Force Western Test Range (AFWTR)
Object type
Payload
Rocket body
Debris
Shape & HBR
Unknown
Radar Cross Section
Medium (>0.1 m² and <1 m²)

Expand to show TLE details & history
Last TLE update: 8 hours ago

TLE from 8 hours ago
0 SOLRAD 7A
1 00730U 64001D   26104.32018730 -.00000007  00000-0  34092-4 0  9998
2 00730  69.9068  54.0529 0011352 121.7239 313.6738 13.96047542 51729
Epoch: 2026-04-14T07:41Z
TLE epoch observation values (Epoch: 2026-04-14T07:41:04.182Z)
Latitude
65.39049°
Longitude
148.89267°
Altitude
912.483 km
Speed
7.405 km/s
True Right ascension
07h 06m 37s
True Declination
65° 15' 46"
Sunlit
Object was in daylight at epoch
Visualization orbit readout
Latitude
Unknown
Longitude
Unknown
Altitude
Unknown
Speed
Unknown
Apparent Right ascension
Unknown
Apparent Declination
Unknown
Sunlit
N/A
Visualization observer readout
Local Sidereal Time
22:03:25
Azimuth
Unknown
Elevation
Unknown
Doppler factor
Unknown
Orbital elements
Apogee altitude
913.835 km
Perigee altitude
897.298 km
Semi-major axis
7,283.704 km
Eccentricity
0.00114
Inclination
69.9068°
RAAN
54.0529°
Arg. of periapsis
121.7239°
True anomaly
313.57962°
Mean anomaly
313.6738°
Eccentric anomaly
313.62672°
Mean motion
3.49152 °/min
Orbital period
103.11 mins
BSTAR
0.000034092
Loading maneuver chart data...
Computing Atmospheric mass density...
Loading historical data...
Loading historical data...
Loading historical data...
Loading historical data...
Loading historical data...
Loading historical data...
Loading historical data...
Other satellites on launch #1 in the year 1964 (1964-01-11 UTC)

Documentation

Showing up to 5 results
|